Change the Weather History Date:

Monday, May 26, 2014

  Actual Average Record
Temperature  
Mean Temperature 73 °F -  
Max Temperature 89 °F 81 °F 95 °F (1958)
Min Temperature 57 °F 56 °F 44 °F (1962)
Cooling Degree Days 8    
Growing Degree Days 23 (Base 50)    
Moisture  
Dew Point 40 °F    
Average Humidity 32    
Maximum Humidity 60    
Minimum Humidity 6    
Precipitation  
Precipitation 0.00 in - - ()
Sea Level Pressure  
Sea Level Pressure 29.91 in    
Wind  
Wind Speed 5 mph (ENE)    
Max Wind Speed 9 mph    
Max Gust Speed -    
Visibility 10 miles    
Events      
Averages and records for this station are not official NWS values.
T = Trace of Precipitation, MM = Missing Value Source: NWS Daily Summary

Daily Weather History Graph

Daily Weather History Graph

Search for Another Location

Airport or City:

Trip Planner

Search our weather history database for the weather conditions in past years. The results will help you decide how hot, cold, wet, or windy it might be!

Date:

Astronomy

May. 26, 2014 Rise Set
Actual Time 5:10 AM MST 7:35 PM MST
Civil Twilight 4:40 AM MST 8:05 PM MST
Nautical Twilight 4:03 AM MST 8:42 PM MST
Astronomical Twilight 3:23 AM MST 9:22 PM MST
Moon 3:51 AM MST (5/26) 5:44 PM MST (5/26)
Length of Visible Light 15h 24m
Length of Day
14h 25m
Waning Crescent, 4% of the Moon is Illuminated
May 26
Waning Crescent
May 28
New
Jun 5
First Quarter
Jun 12
Full
Jun 19
Last Quarter

Hourly Weather History & Observations

Time (MST) Temp. Dew Point Humidity Pressure Visibility Wind Dir Wind Speed Gust Speed Precip Events Conditions
12:53 AM 63.0 °F 44.1 °F 50% 29.90 in 10.0 mi SSE 6.9 mph - N/A   Clear
1:53 AM 63.0 °F 45.0 °F 52% 29.89 in 10.0 mi South 6.9 mph - N/A   Clear
2:53 AM 62.1 °F 45.0 °F 53% 29.90 in 10.0 mi South 4.6 mph - N/A   Clear
3:53 AM 59.0 °F 44.1 °F 58% 29.92 in 10.0 mi ESE 4.6 mph - N/A   Clear
4:53 AM 57.9 °F 44.1 °F 60% 29.93 in 10.0 mi Calm Calm - N/A   Clear
5:53 AM 60.1 °F 44.1 °F 55% 29.94 in 10.0 mi Calm Calm - N/A   Clear
6:53 AM 63.0 °F 45.0 °F 52% 29.96 in 10.0 mi NW 3.5 mph - N/A   Clear
7:53 AM 66.9 °F 45.0 °F 45% 29.97 in 10.0 mi Variable 3.5 mph - N/A   Clear
8:53 AM 70.0 °F 45.0 °F 41% 29.97 in 10.0 mi Variable 3.5 mph - N/A   Clear
9:53 AM 73.0 °F 45.0 °F 37% 29.97 in 10.0 mi NE 6.9 mph - N/A   Clear
10:53 AM 75.9 °F 45.0 °F 33% 29.96 in 10.0 mi NNE 8.1 mph - N/A   Clear
11:53 AM 79.0 °F 43.0 °F 28% 29.94 in 10.0 mi NNE 8.1 mph - N/A   Clear
12:53 PM 82.0 °F 42.1 °F 24% 29.91 in 10.0 mi NNE 8.1 mph - N/A   Clear
1:53 PM 84.0 °F 39.0 °F 20% 29.88 in 10.0 mi ENE 8.1 mph - N/A   Clear
2:53 PM 86.0 °F 39.0 °F 19% 29.86 in 10.0 mi North 9.2 mph - N/A   Clear
3:53 PM 87.8 °F 35.6 °F 16% 30.01 in 10.0 mi Variable 6.9 mph - N/A   Clear
4:53 PM 89.1 °F 30.9 °F 12% 29.82 in 10.0 mi ENE 9.2 mph - N/A   Clear
5:53 PM 88.0 °F 32.0 °F 14% 29.80 in 10.0 mi ENE 4.6 mph - N/A   Clear
6:53 PM 86.0 °F 36.0 °F 17% 29.81 in 10.0 mi ENE 6.9 mph - N/A   Clear
7:53 PM 80.1 °F 39.0 °F 23% 29.83 in 10.0 mi NNE 6.9 mph - N/A   Clear
8:53 PM 79.0 °F 37.9 °F 23% 29.85 in 10.0 mi NE 3.5 mph - N/A   Clear
9:53 PM 73.9 °F 37.9 °F 27% 29.87 in 10.0 mi Calm Calm - N/A   Clear
10:53 PM 71.6 °F 33.8 °F 25% 30.05 in 10.0 mi ESE 5.8 mph - N/A   Clear
11:53 PM 71.1 °F 35.1 °F 27% 29.87 in 10.0 mi SE 8.1 mph - N/A   Clear